Weather History for Juneau, WI

Change the Weather History Date:

Wednesday, February 13, 2013

  Actual Average Record
Temperature  
Mean Temperature 26 °F -  
Max Temperature 33 °F 29 °F 52 °F (1990)
Min Temperature 19 °F 16 °F -6 °F (1986)
Degree Days  
Heating Degree Days 39    
Moisture  
Dew Point 24 °F    
Average Humidity 87    
Maximum Humidity 100    
Minimum Humidity 69    
Precipitation  
Precipitation 0.00 in - - ()
Sea Level Pressure  
Sea Level Pressure 29.73 in    
Wind  
Wind Speed 6 mph (SSW)    
Max Wind Speed 12 mph    
Max Gust Speed -    
Visibility 7 miles    
Events      
Averages and records for this station are not official NWS values.
T = Trace of Precipitation, MM = Missing Value Source: NWS Daily Summary

Daily Weather History Graph

Daily Weather History Graph

Search for Another Location

Airport:

Trip Planner

Search our weather history database for the weather conditions in past years. The results will help you decide how hot, cold, wet, or windy it might be!

Date:

Astronomy

Feb. 13, 2013 Rise Set
Actual Time 6:55 AM CST 5:23 PM CST
Civil Twilight 6:26 AM CST 5:52 PM CST
Nautical Twilight 5:52 AM CST 6:26 PM CST
Astronomical Twilight 5:19 AM CST 6:59 PM CST
Moon 8:16 AM CST (2/13) 9:35 PM CST (2/13)
Length of Visible Light 11h 26m
Length of Day
10h 27m
Waxing Crescent, 14% of the Moon is Illuminated
Feb 13
Waxing Crescent
Feb 17
First Quarter
Feb 25
Full
Mar 4
Last Quarter
Mar 11
New

Hourly Weather History & Observations

Time (CST) Temp. Windchill Dew Point Humidity Pressure Visibility Wind Dir Wind Speed Gust Speed Precip Events Conditions
12:15 AM 21.2 °F 11.7 °F 19.4 °F 93% 29.85 in 7.0 mi SSW 8.1 mph - N/A   Clear
12:35 AM 21.2 °F 12.6 °F 19.4 °F 93% 29.84 in 7.0 mi SSW 6.9 mph - N/A   Clear
12:55 AM 21.2 °F 13.6 °F 19.4 °F 93% 29.84 in 7.0 mi South 5.8 mph - N/A   Clear
1:15 AM 21.2 °F 13.6 °F 21.2 °F 100% 29.83 in 7.0 mi South 5.8 mph - N/A   Clear
1:35 AM 21.2 °F 14.9 °F 21.2 °F 100% 29.82 in 7.0 mi South 4.6 mph - N/A   Clear
2:15 AM 23.0 °F 15.8 °F 21.2 °F 93% 29.82 in 7.0 mi South 5.8 mph - N/A   Clear
2:35 AM 21.2 °F 16.4 °F 19.4 °F 93% 29.81 in 5.0 mi South 3.5 mph - N/A   Clear
2:55 AM 21.2 °F 13.6 °F 21.2 °F 100% 29.80 in 5.0 mi South 5.8 mph - N/A   Clear
3:15 AM 21.2 °F 13.6 °F 21.2 °F 100% 29.78 in 5.0 mi South 5.8 mph - N/A   Clear
3:35 AM 19.4 °F 12.8 °F 19.4 °F 100% 29.79 in 4.0 mi SSW 4.6 mph - N/A   Clear
3:55 AM 21.2 °F 16.4 °F 19.4 °F 93% 29.78 in 3.0 mi South 3.5 mph - N/A   Clear
4:15 AM 21.2 °F 14.9 °F 21.2 °F 100% 29.77 in 4.0 mi South 4.6 mph - N/A   Clear
4:35 AM 21.2 °F 14.9 °F 21.2 °F 100% 29.77 in 4.0 mi South 4.6 mph - N/A   Clear
4:55 AM 21.2 °F 16.4 °F 21.2 °F 100% 29.77 in 3.0 mi South 3.5 mph - N/A   Clear
5:15 AM 19.4 °F 14.3 °F 19.4 °F 100% 29.76 in 2.0 mi SSE 3.5 mph - N/A   Clear
5:35 AM 19.4 °F 14.3 °F 19.4 °F 100% 29.76 in 1.8 mi SSE 3.5 mph - N/A   Mist
5:55 AM 19.4 °F 12.8 °F 19.4 °F 100% 29.75 in 1.8 mi South 4.6 mph - N/A   Mist
6:15 AM 19.4 °F 12.8 °F 19.4 °F 100% 29.75 in 2.0 mi South 4.6 mph - N/A   Clear
6:35 AM 21.2 °F 14.9 °F 21.2 °F 100% 29.74 in 3.0 mi South 4.6 mph - N/A   Clear
6:55 AM 19.4 °F 14.3 °F 19.4 °F 100% 29.74 in 2.0 mi South 3.5 mph - N/A   Clear
7:15 AM 19.4 °F 14.3 °F 19.4 °F 100% 29.75 in 1.5 mi SW 3.5 mph - N/A   Mist
7:35 AM 19.4 °F 14.3 °F 19.4 °F 100% 29.75 in 1.8 mi SSW 3.5 mph - N/A   Mist
7:55 AM 21.2 °F - 19.4 °F 93% 29.75 in 1.8 mi Calm Calm - N/A   Mist
8:15 AM 21.2 °F 16.4 °F 21.2 °F 100% 29.74 in 2.0 mi SSW 3.5 mph - N/A   Clear
8:35 AM 21.2 °F 16.4 °F 21.2 °F 100% 29.74 in 2.5 mi SSW 3.5 mph - N/A   Mostly Cloudy
8:55 AM 23.0 °F 18.4 °F 23.0 °F 100% 29.73 in 3.0 mi SW 3.5 mph - N/A   Mostly Cloudy
9:15 AM 23.0 °F 18.4 °F 23.0 °F 100% 29.73 in 3.0 mi SSW 3.5 mph - N/A   Scattered Clouds
9:35 AM 24.8 °F 20.5 °F 24.8 °F 100% 29.73 in 4.0 mi SW 3.5 mph - N/A   Clear
9:55 AM 26.6 °F 21.2 °F 26.6 °F 100% 29.73 in 4.0 mi South 4.6 mph - N/A   Scattered Clouds
10:15 AM 28.4 °F 23.3 °F 26.6 °F 93% 29.72 in 5.0 mi South 4.6 mph - N/A   Mostly Cloudy
10:35 AM 28.4 °F 23.3 °F 26.6 °F 93% 29.73 in 5.0 mi SSW 4.6 mph - N/A   Overcast
10:55 AM 30.2 °F 24.3 °F 24.8 °F 80% 29.73 in 7.0 mi SSW 5.8 mph - N/A   Overcast
11:15 AM 30.2 °F 24.3 °F 23.0 °F 75% 29.73 in 10.0 mi SSW 5.8 mph - N/A   Overcast
11:35 AM 32.0 °F 26.4 °F 23.0 °F 69% 29.72 in 10.0 mi South 5.8 mph - N/A   Overcast
11:55 AM 32.0 °F 24.8 °F 23.0 °F 69% 29.71 in 10.0 mi SSW 8.1 mph - N/A   Overcast
12:15 PM 32.0 °F 24.8 °F 23.0 °F 69% 29.71 in 10.0 mi SSW 8.1 mph - N/A   Overcast
12:35 PM 32.0 °F 24.2 °F 26.6 °F 80% 29.71 in 10.0 mi South 9.2 mph - N/A   Overcast
12:55 PM 32.0 °F 23.6 °F 24.8 °F 75% 29.70 in 10.0 mi SSW 10.4 mph - N/A   Overcast
1:15 PM 32.0 °F 23.0 °F 24.8 °F 75% 29.70 in 10.0 mi South 11.5 mph - N/A   Overcast
1:35 PM 32.0 °F 23.6 °F 24.8 °F 75% 29.70 in 10.0 mi SSW 10.4 mph - N/A   Overcast
1:55 PM 33.8 °F 26.4 °F 26.6 °F 75% 29.69 in 10.0 mi SSW 9.2 mph - N/A   Overcast
2:15 PM 33.8 °F 26.4 °F 26.6 °F 75% 29.69 in 10.0 mi SSW 9.2 mph - N/A   Overcast
2:35 PM 33.8 °F 26.4 °F 24.8 °F 70% 29.69 in 10.0 mi SW 9.2 mph - N/A   Overcast
2:55 PM 33.8 °F 25.8 °F 26.6 °F 75% 29.70 in 10.0 mi SW 10.4 mph - N/A   Overcast
3:55 PM 33.8 °F 25.8 °F 26.6 °F 75% 29.70 in 10.0 mi SW 10.4 mph - N/A   Unknown
4:15 PM 33.8 °F 27.0 °F 26.6 °F 75% 29.70 in 10.0 mi SSW 8.1 mph - N/A   Scattered Clouds
4:35 PM 33.8 °F 26.4 °F 26.6 °F 75% 29.69 in 10.0 mi SW 9.2 mph - N/A   Overcast
4:55 PM 33.8 °F 27.0 °F 26.6 °F 75% 29.70 in 10.0 mi SW 8.1 mph - N/A   Overcast
5:15 PM 33.8 °F 27.0 °F 26.6 °F 75% 29.70 in 10.0 mi SW 8.1 mph - N/A   Overcast
5:35 PM 32.0 °F 26.4 °F 26.6 °F 80% 29.70 in 10.0 mi SSW 5.8 mph - N/A   Scattered Clouds
5:55 PM 32.0 °F 25.6 °F 26.6 °F 80% 29.70 in 10.0 mi SSW 6.9 mph - N/A   Clear
6:15 PM 32.0 °F 26.4 °F 26.6 °F 80% 29.70 in 10.0 mi SSW 5.8 mph - N/A   Scattered Clouds
6:35 PM 32.0 °F 26.4 °F 26.6 °F 80% 29.70 in 10.0 mi SSW 5.8 mph - N/A   Overcast
6:55 PM 32.0 °F 25.6 °F 26.6 °F 80% 29.70 in 10.0 mi SSW 6.9 mph - N/A   Overcast
7:15 PM 32.0 °F 24.8 °F 26.6 °F 80% 29.71 in 10.0 mi SSW 8.1 mph - N/A   Overcast
7:35 PM 32.0 °F 26.4 °F 26.6 °F 80% 29.71 in 10.0 mi SSW 5.8 mph - N/A   Overcast
7:55 PM 32.0 °F 26.4 °F 26.6 °F 80% 29.70 in 10.0 mi SSW 5.8 mph - N/A   Mostly Cloudy
8:15 PM 32.0 °F 25.6 °F 26.6 °F 80% 29.70 in 10.0 mi SSW 6.9 mph - N/A   Overcast
8:35 PM 32.0 °F 27.5 °F 26.6 °F 80% 29.70 in 10.0 mi South 4.6 mph - N/A   Overcast
8:55 PM 32.0 °F 26.4 °F 26.6 °F 80% 29.70 in 10.0 mi SSW 5.8 mph - N/A   Overcast
9:15 PM 32.0 °F 24.2 °F 26.6 °F 80% 29.70 in 10.0 mi SSW 9.2 mph - N/A   Overcast
9:35 PM 32.0 °F 24.2 °F 28.4 °F 87% 29.70 in 10.0 mi SSW 9.2 mph - N/A   Overcast
9:55 PM 32.0 °F 24.8 °F 28.4 °F 87% 29.70 in 10.0 mi SSW 8.1 mph - N/A   Overcast
10:15 PM 32.0 °F 24.8 °F 28.4 °F 87% 29.69 in 10.0 mi SSW 8.1 mph - N/A   Overcast
10:35 PM 32.0 °F 25.6 °F 28.4 °F 87% 29.69 in 10.0 mi South 6.9 mph - N/A   Overcast
10:55 PM 32.0 °F 25.6 °F 28.4 °F 87% 29.68 in 10.0 mi South 6.9 mph - N/A   Overcast
11:15 PM 32.0 °F 24.8 °F 28.4 °F 87% 29.68 in 10.0 mi South 8.1 mph - N/A   Overcast
11:35 PM 32.0 °F 25.6 °F 28.4 °F 87% 29.67 in 10.0 mi South 6.9 mph - N/A   Overcast
11:55 PM 32.0 °F 26.4 °F 28.4 °F 87% 29.67 in 10.0 mi SSE 5.8 mph - N/A   Overcast